STARLINK-1878 (47163 NORAD) Tracking and Keplerian Element Data

This shows tracking and keplerian element data for the satellite.

Feedback or suggestion? Click here.




ElementValue
Catalog47163
NameSTARLINK-1878
Epoch Orbit181
Epoch Day99.91667824
Epoch Year2021
RAAN88.6739
Inclination53.0549
Eccentricity3.91E-05
Argument of Perigee86.8985
Mean Anonmoly324.0512
Mean Motion15.06385265
Decay Rate0.00033898
L11 47163U 20088AT 21099.91667824 .00033898 00000-0 22846-2 0 9998
L22 47163 53.0549 88.6739 0000391 86.8985 324.0512 15.06385265 1815

Live tracking and technical data element details for STARLINK-1878 (NORAD 47163). STARLINK-1878 can be tracked NOW for your location showing map with azimuth and elevation plus other details from your city location.

Track the satellite on the map from your city or location and see movement details for azimuth, elevation, latitude, longitude, range, height, and movement on the map or in text.







IsCatalogInMostPopularTable: catalog: 47163, numindb: 48
Update: records affected: 1



GetName: 47163 STARLINK-1878

Hit Count: updated at: Sat, 10 Apr 2021 19:32:40 GMT